COSMOS 970 DEB, 64964

Orbit data source: Space-Track

COSMOS 970 DEB, 64964 is space debris in LEO originally from a launch on Wed, 21 Dec 1977 UTC launched from the Tyuratam Missile And Space Complex (TTMTR). Debris objects in space refer to the collection of defunct objects orbiting the Earth. Examples of debris include non-operational satellites, rocket bodies, and fragments generated from explosions, collisions, or faulty payload assembly.

Loading next visibility...
Identifier
64964, 1977-121BZ
Orbit
LEO
Country
Flag of CISCIS
Related business
Manufacturer
Unknown
Mission
Spacecraft
Bus & Motor
Unknown
Mass
Unknown
Launch date (UTC)
1977-12-21 (48 years ago)
Launch vehicle
Unknown
Launch site
Tyuratam Missile And Space Complex (TTMTR)
Object type
Payload
Rocket body
Debris
Shape & HBR
Unknown shape, 0.1 m
Radar Cross Section
Small (<0.1 m²)

Expand to show TLE details & history
Last TLE update: 1 day ago

TLE from 1 day ago
0 COSMOS 970 DEB
1 64964U 77121BZ  26170.51872072  .00000278  00000-0  33099-3 0  9999
2 64964  65.6947  85.9461 0129493 215.3553 325.5760 13.79114111632236
Epoch: 2026-06-19T12:26Z
TLE epoch observation values (Epoch: 2026-06-19T12:26:57.470Z)
Latitude
-0.17226°
Longitude
171.53749°
Altitude
890.967 km
Speed
7.446 km/s
True Right ascension
17h 44m 05s
True Declination
0° 10' 16"
Sunlit
Object was in full shadow at epoch
Visualization orbit readout
Latitude
Unknown
Longitude
Unknown
Altitude
Unknown
Speed
Unknown
Apparent Right ascension
Unknown
Apparent Declination
Unknown
Sunlit
N/A
Visualization observer readout
Local Sidereal Time
07:13:41
Azimuth
Unknown
Elevation
Unknown
Doppler factor
Unknown
Orbital elements
Apogee altitude
1,060.656 km
Perigee altitude
870.465 km
Semi-major axis
7,343.698 km
Eccentricity
0.01295
Inclination
65.6947°
RAAN
85.9461°
Arg. of periapsis
215.3553°
True anomaly
324.72583°
Mean anomaly
325.576°
Eccentric anomaly
325.15205°
Mean motion
3.44882 °/min
Orbital period
104.38 mins
BSTAR
0.00033099
Loading maneuver chart data...
Computing Atmospheric mass density...
Loading historical data...
Loading historical data...
Loading historical data...
Loading historical data...
Loading historical data...
Loading historical data...
Loading historical data...

Documentation

Showing up to 5 results
|